This demonstration page uses our WeatherBlox Daily Observations layout. Learn more.

Left ArrowRight Arrow

Hourly Observations for October 18, 2019

Temp ( °F °C ) Dew Point ( °F °C ) Humidity (%) Winds ( mph kmh ) Pressure ( in mb ) Visibility ( mi km ) Precip ( " mm )
12:53 am 00:53 Clear 36 2.2 35 1.7 97 97 Calm 30.06 1018 10 16 0.00 0.00
1:53 am 01:53 Clear 36 2.2 34 1.1 93 93 Calm 30.06 1018 10 16 0.00 0.00
2:53 am 02:53 Clear 34 1.1 33 0.6 97 97 Calm 30.06 1018 10 16 0.00 0.00
3:53 am 03:53 Clear 33 0.6 32 0 96 96 Calm 30.07 1018 10 16 0.00 0.00
4:53 am 04:53 Clear 33 0.6 32 0 96 96 Calm 30.08 1019 8 13 0.00 0.00
5:53 am 05:53 Mostly Clear 32 0 31 -0.6 96 96 Calm 30.10 1019 10 16 0.00 0.00
6:53 am 06:53 Clear 32 0 32 0 100 100 Calm 30.11 1020 8 13 0.00 0.00
7:53 am 07:53 Sunny 31 -0.6 30 -1.1 96 96 Calm 30.13 1020 10 16 0.00 0.00
8:53 am 08:53 Sunny 35 1.7 34 1.1 96 96 Calm 30.14 1021 10 16 0.00 0.00
9:53 am 09:53 Sunny 44 6.7 40 4.4 85 85 Calm 30.15 1021 10 16 0.00 0.00
10:53 am 10:53 Sunny 51 10.6 41 5 69 69 ENE 7 11 30.14 1021 10 16 0.00 0.00
11:53 am 11:53 Sunny 54 12.2 39 3.9 57 57 ENE 5 7 30.12 1020 10 16 0.00 0.00
12:53 pm 12:53 Sunny 57 13.9 39 3.9 51 51 VRB 5 7 30.11 1020 10 16 0.00 0.00
1:53 pm 13:53 Sunny 58 14.4 37 2.8 46 46 Calm 30.09 1019 10 16 0.00 0.00
2:53 pm 14:53 Sunny 60 15.6 37 2.8 42 42 Calm 30.06 1018 10 16 0.00 0.00
3:53 pm 15:53 Sunny 62 16.7 37 2.8 40 40 ESE 6 9 30.05 1018 10 16 0.00 0.00
4:53 pm 16:53 Sunny 62 16.7 35 1.7 37 37 Calm 30.05 1018 10 16 0.00 0.00
5:53 pm 17:53 Sunny 62 16.7 36 2.2 38 38 ESE 3 6 30.04 1017 10 16 0.00 0.00
6:53 pm 18:53 Sunny 52 11.1 42 5.6 69 69 Calm 30.02 1017 10 16 0.00 0.00
7:53 pm 19:53 Clear 45 7.2 40 4.4 83 83 Calm 30.03 1017 10 16 0.00 0.00
8:53 pm 20:53 Clear 42 5.6 39 3.9 89 89 Calm 30.03 1017 10 16 0.00 0.00
9:53 pm 21:53 Clear 39 3.9 35 1.7 86 86 Calm 30.02 1017 10 16 0.00 0.00
10:53 pm 22:53 Clear 38 3.3 36 2.2 93 93 Calm 30.03 1017 10 16 0.00 0.00
11:53 pm 23:53 Clear 37 2.8 36 2.2 96 96 Calm 30.02 1017 10 16 0.00 0.00

Powered by AerisWeather